Terug naar catalogus

NOVA 2

ActiefNavigatiePO
NORAD 19223·PAYLOAD·🇺🇸 United States

Gelanceerd Jun 16, 1988 vanaf Vandenberg Space Force Base

Loading…

Volgende Passages (komende 24 uur)

TLE

VersSource: Space-Track

Epoch: Sep 14, 2026, 12:10 UTC

1 19223U 88052A   26257.50754546  .00000016  00000-0  17915-4 0  9992
2 19223  89.9784  77.8087 0029702 336.8410  38.4254 13.22964241845946

Volg NOVA 2 in realtime met AllMySat

Download on the App Store